Orbital Elements at Epoch 2459000.5 (2020-May-31.0) TDB
Reference: JPL 15 (heliocentric ecliptic J2000)
Element | Value | Uncertainty (1-sigma) | Units |
e | .1558102217284899 | 4.0135e-08 | |
a | 2.414362019293082 | 1.4868e-08 | au |
q | 2.038179737734182 | 9.2589e-08 | au |
i | 2.355938591937865 | 3.8536e-06 | deg |
node | 55.75345014146433 | 0.00014235 | deg |
peri | 38.18704155246242 | 0.00014394 | deg |
M | 86.76000964721439 | 2.2472e-05 | deg |
tp | 2458670.268038971397 (2019-Jul-05.76803897) | 8.3987e-05 | TDB |
period | 1370.256947339035 3.75 | 1.2657e-05 3.465e-08 | d yr |
n | .2627244479213191 | 2.4268e-09 | deg/d |
Q | 2.790544300851982 | 1.7185e-08 | au |
|
| | Orbit Determination Parameters
Additional Information
|